Wind_Speed
10 5 9 9 9 10 5 3 7 9 6 7 3 14 14 4 5 8 7 8 11 11 8 16 21 28 32 31 31 30 27 26 23 16 9 6 12 10 15 19 21 24 21 16
4 4 7 8 11 15 4 2 4 3 5 5 8 9 16 4 6 8 9 8 12 8 10 12 21 24 30 38 38 33 31 30 26 19 17 10 2 8 14 11 12 16 18 12
4 6 5 9 9 13 6 4 2 2 2 3 7 2 6 2 1 5 5 7 11 19 17 14 17 22 22 29 40 38 34 35 36 34 25 22 16 9 15 10 14 13 14 9
6 6 4 6 6 10 4 6 6 6 1 5 3 4 5 5 3 5 8 7 14 14 13 13 15 17 24 29 37 39 40 35 35 35 39 31 27 24 22 19 19 20 18 20
4 6 6 9 9 13 6 5 7 6 3 4 1 4 5 4 5 9 10 8 7 13 15 16 15 21 22 29 28 25 20 27 24 21 19 19 23 13 12 15 20 25 22 16
6 4 7 9 5 11 5 2 3 4 2 2 4 4 4 8 11 2 4 4 6 7 7 7 8 12 16 21 24 19 18 21 26 28 23 21 21 17 21 25 21 18 17 13
2 4 4 4 4 3 4 4 2 2 1 5 4 2 8 4 6 11 12 9 9 8 8 8 9 9 15 17 19 17 16 18 15 10 11 18 23 30 28 28 24 18 17 17
1 1 6 5 5 6 5 7 4 5 5 3 2 5 5 4 5 7 8 3 9 8 7 9 6 10 14 15 18 19 17 15 15 14 15 22 26 30 31 31 24 20 21 19
3 4 2 5 5 6 4 4 3 5 2 4 3 4 8 5 5 4 7 6 8 9 9 7 6 11 14 16 20 21 16 12 13 18 22 26 29 32 31 28 26 25 22 17
4 3 2 2 2 3 4 4 1 2 4 4 0 2 2 4 3 6 7 9 8 6 8 8 7 11 13 14 14 15 15 19 22 24 28 31 28 30 30 29 28 23 19 17
2 1 2 4 5 6 2 2 4 4 2 4 3 2 4 4 3 8 7 9 11 10 10 10 10 14 13 10 14 13 20 21 21 25 25 26 24 27 28 27 25 23 20 15
5 3 2 6 3 7 6 6 4 4 2 2 3 3 5 4 4 2 7 9 7 7 5 7 10 15 15 16 20 19 22 21 23 23 23 21 24 31 32 29 26 23 19 13
1 2 3 5 5 3 4 4 4 5 3 3 4 4 4 2 6 5 7 7 9 6 8 10 11 11 16 18 16 15 17 24 25 24 25 26 26 29 30 29 26 19 15 10
3 3 4 5 5 4 4 5 5 5 3 4 4 6 4 9 9 11 11 5 7 10 11 10 11 13 14 15 18 20 19 23 27 27 29 30 30 33 30 26 20 15 11 9
4 2 3 3 4 2 4 5 6 5 4 5 3 5 2 5 7 8 8 5 10 11 13 13 12 10 17 19 21 22 20 18 26 30 31 30 31 29 25 21 17 14 11 9
7 3 3 4 4 5 4 5 7 2 4 2 2 3 7 8 9 12 10 7 11 9 11 15 14 16 18 24 23 24 25 23 23 24 23 30 27 24 21 18 15 13 11 10
4 3 2 2 6 3 4 8 8 5 4 6 5 4 5 6 8 8 10 13 10 10 9 12 13 13 20 24 31 30 29 32 29 27 20 23 21 20 17 16 15 14 14 12
4 4 2 3 3 1 6 2 7 5 1 4 6 7 7 8 7 7 10 12 13 11 10 13 12 23 23 22 25 38 32 27 33 30 23 19 17 18 16 16 17 15 12 12
11 2 2 1 2 3 2 4 2 7 6 6 10 10 11 11 8 6 10 14 13 11 9 17 21 26 28 28 27 31 27 32 30 24 21 18 18 19 17 16 16 14 14 15
9 7 2 3 1 0 2 4 7 2 4 10 12 18 17 13 4 4 6 17 14 15 14 18 22 28 30 25 30 31 25 26 25 22 19 18 17 19 20 18 18 17 15 16
4 2 3 2 3 3 5 12 7 4 4 3 15 17 13 5 2 13 14 13 17 16 17 20 26 28 26 27 30 29 26 24 20 21 22 21 21 21 17 18 16 15 15 12
1 1 3 1 2 3 11 7 1 3 8 10 10 8 12 14 17 17 15 15 12 17 19 20 25 25 24 27 32 30 27 22 20 21 23 22 19 19 18 20 18 18 15 16
2 3 3 1 2 1 2 6 9 8 9 6 10 16 18 15 16 19 14 13 13 17 18 16 23 24 21 21 25 29 23 21 22 21 21 19 18 16 17 17 18 18 16 16
7 5 3 3 5 8 2 10 9 5 1 11 17 17 20 19 16 17 13 12 12 15 16 18 24 22 21 21 26 27 23 22 22 22 20 18 17 16 16 17 17 17 18 18
3 7 5 3 2 9 3 9 5 7 10 16 16 18 19 20 16 17 14 13 16 16 17 20 21 22 23 25 24 22 22 22 23 23 21 18 17 14 15 17 17 17 17 17
3 3 3 3 7 3 10 7 3 5 8 15 20 18 15 15 17 16 13 18 17 18 20 21 21 23 22 23 23 21 19 20 22 22 18 15 14 14 13 12 13 15 15 16
Wind_Direction
164 207 196 207 223 239 11 179 156 227 230 162 175 202 248 232 223 226 230 155 158 150 153 134 135 149 156 164 165 163 154 157 162 153 148 91 39 346 312 275 262 258 252 231
4 238 246 177 200 248 271 353 295 209 184 147 175 193 234 177 230 202 196 157 154 140 155 151 151 151 157 166 168 160 160 158 167 167 135 103 156 57 12 341 259 246 226 224
163 269 262 212 194 230 238 210 253 214 139 165 143 179 192 215 257 262 251 145 163 164 166 169 167 171 167 170 170 169 172 183 185 183 181 174 174 245 272 356 282 248 235 194
203 197 336 204 215 198 220 207 224 285 105 171 154 222 255 198 199 249 231 196 166 176 179 174 173 185 182 184 178 185 193 194 193 190 189 190 184 193 219 186 193 187 185 173
227 150 309 259 222 181 226 226 202 226 234 112 275 102 239 133 206 224 227 219 196 176 179 179 189 192 193 198 204 205 207 214 208 203 215 203 199 195 175 190 182 148 149 144
257 174 192 199 201 174 168 183 44 55 84 53 230 132 250 197 199 185 260 194 200 181 167 165 169 180 203 216 231 229 212 209 217 220 211 206 205 197 162 160 147 147 141 147
248 200 237 168 147 280 103 99 83 63 99 203 274 101 230 222 198 178 203 210 192 178 170 173 175 170 186 192 203 204 198 196 194 195 196 189 183 174 159 155 155 158 148 176
223 242 185 183 166 185 173 167 158 166 165 185 93 216 258 255 223 185 201 222 147 174 190 201 166 147 168 186 201 210 214 221 232 225 194 181 171 162 163 165 159 164 167 192
173 279 154 183 153 139 193 204 162 110 347 98 198 297 316 352 75 111 161 165 180 176 185 168 138 165 184 193 200 202 207 190 184 187 177 169 172 172 166 160 163 165 186 182
292 337 137 147 90 68 150 159 147 359 139 161 97 207 228 24 307 150 172 199 207 178 165 147 162 176 195 206 198 191 179 162 156 150 157 156 159 168 162 164 161 175 172 162
255 118 2 97 192 160 91 40 58 111 97 141 126 251 223 269 273 285 267 212 196 196 192 164 165 168 176 172 178 157 164 156 157 161 166 168 165 165 165 159 165 162 153 153
222 165 199 220 254 171 168 179 153 120 237 68 117 269 117 262 312 260 277 264 258 216 156 143 145 149 152 158 170 160 155 142 153 163 161 167 170 171 161 160 152 151 146 147
208 313 22 1 14 14 145 159 119 111 81 178 132 259 178 5 345 338 321 246 212 155 132 141 151 156 157 165 157 154 144 139 147 156 151 139 136 146 150 144 144 143 139 134
295 161 152 201 214 168 141 155 155 108 106 176 211 273 331 17 353 348 346 305 149 145 147 147 142 153 137 138 135 126 125 134 133 133 130 137 145 144 140 136 133 129 125 115
45 314 10 279 262 208 161 186 160 180 176 149 230 209 27 20 18 5 348 64 113 140 145 142 143 124 109 105 105 106 108 118 131 132 135 133 138 136 132 128 122 115 109 102
343 4 308 297 304 203 186 209 212 205 119 81 184 229 93 62 43 33 10 111 121 133 144 141 132 122 123 120 116 111 106 98 85 84 92 121 126 121 115 109 103 101 94 92
304 324 293 77 325 83 313 221 183 190 152 158 208 205 140 83 59 39 32 38 46 60 75 89 103 111 124 128 126 115 106 119 114 100 91 105 109 104 104 106 103 94 90 83
288 353 306 294 32 178 248 246 206 184 226 155 103 132 102 108 104 84 62 65 47 48 54 75 79 84 83 95 109 115 131 129 126 126 120 112 110 102 99 98 93 89 88 80
201 279 292 41 232 284 35 350 139 164 235 168 138 130 130 139 104 37 81 81 74 63 59 76 86 91 92 91 94 98 102 101 99 100 106 113 113 105 100 90 87 88 82 77
173 238 68 328 255 203 9 332 326 84 290 173 157 159 165 173 183 129 138 97 83 78 82 92 91 89 86 90 104 95 90 91 91 100 104 107 105 101 97 94 87 82 78 74
138 205 211 242 280 318 20 306 301 165 224 226 168 165 156 197 130 122 94 88 92 99 92 93 89 86 88 94 94 86 87 82 96 109 109 103 96 95 96 87 77 76 74 70
75 97 239 160 264 346 3 353 174 293 293 185 179 126 104 114 117 107 100 99 109 97 92 85 88 85 94 107 106 98 93 104 104 103 102 97 92 88 86 86 84 77 74 71
19 3 306 224 262 166 344 309 287 268 244 143 140 124 125 124 118 115 117 112 99 94 88 93 93 89 86 102 110 105 113 115 110 106 101 99 93 90 89 90 85 77 68 66
340 15 307 6 357 321 286 346 353 315 157 111 124 132 132 136 128 120 116 106 99 100 103 101 95 90 86 96 106 113 119 119 116 111 112 111 106 99 92 87 81 70 57 51
250 332 306 284 5 324 279 358 1 21 94 111 121 133 138 130 128 122 117 114 114 116 104 102 102 100 98 110 112 115 119 124 115 112 112 108 97 100 103 85 74 67 56 44
308 1 5 298 349 313 291 327 69 79 107 122 124 125 129 130 124 121 115 119 122 112 110 105 102 103 104 111 112 113 117 117 111 106 105 106 110 102 103 99 86 75 58 54
Height
738 749 744 746 744 738 737 734 736 731 720 729 733 734 723 713 715 716 715 718 721 723 725 728 731 734 739 745 750 755 758 763 769 775 779 784 790 795 798 800 803 805 810 809
745 742 739 736 739 738 737 739 733 721 717 723 735 734 725 717 715 712 711 717 721 725 726 728 731 735 737 739 744 750 754 758 762 768 771 777 785 791 796 799 798 802 806 805
746 739 732 731 734 736 734 737 733 728 717 718 728 730 725 715 714 710 707 710 715 716 722 726 728 732 735 737 740 745 748 749 752 757 762 763 773 779 789 786 804 808 808 806
736 731 731 731 732 732 739 727 727 727 729 739 719 752 729 720 722 716 709 708 714 716 718 721 725 730 731 736 740 743 744 748 749 751 748 753 756 760 778 786 796 799 798 804
727 727 736 732 724 721 728 719 725 724 726 729 727 741 728 724 728 717 711 709 707 710 713 717 721 724 729 735 738 742 745 748 752 757 761 761 767 765 775 784 799 796 798 802
723 721 724 722 715 711 710 719 724 733 738 746 730 733 730 725 704 711 707 708 708 709 714 719 724 728 731 735 738 743 747 750 752 757 758 761 764 771 778 791 794 799 797 805
719 719 713 709 713 708 715 729 750 750 751 748 731 726 721 701 700 699 702 704 707 708 712 716 720 725 730 735 740 744 747 749 750 751 754 760 765 771 774 784 792 797 801 810
728 726 714 706 709 719 722 728 746 739 754 745 728 732 712 695 691 693 694 693 703 708 710 712 718 724 729 732 735 739 742 743 745 750 755 759 765 769 777 782 793 801 804 815
728 720 703 703 700 707 716 725 718 736 734 735 734 717 702 693 695 698 699 698 701 704 707 711 716 719 723 728 732 737 741 743 747 751 756 760 766 771 774 779 786 794 806 810
715 719 703 703 699 703 709 709 725 736 736 732 736 726 720 707 700 700 703 701 699 701 706 712 716 719 722 726 731 736 741 746 750 751 757 760 766 771 775 782 786 797 802 803
712 717 711 705 709 714 715 721 725 731 737 737 742 733 715 712 712 709 703 696 696 698 701 707 712 717 721 726 732 736 742 748 751 751 759 760 765 771 776 780 786 791 796 802
709 715 717 706 695 693 700 710 718 735 730 737 738 730 710 707 706 708 707 700 697 696 700 705 711 717 723 728 733 737 741 746 750 754 756 760 761 768 772 779 786 794 798 803
704 715 725 715 707 697 702 707 713 721 731 734 737 728 708 703 701 700 701 698 693 699 703 706 709 714 719 726 733 738 743 743 747 754 754 761 767 771 779 784 790 796 798 802
705 712 717 728 714 708 707 703 709 717 735 731 731 714 706 706 704 695 693 691 693 697 700 705 708 712 718 727 734 739 746 748 749 755 759 766 771 775 782 788 793 796 800 801
718 714 708 707 700 701 698 700 707 709 711 718 712 712 707 709 704 702 694 695 696 698 698 703 709 716 722 731 738 744 751 757 756 756 763 771 777 781 785 789 792 795 799 801
725 718 711 705 694 699 699 697 700 701 708 707 709 708 707 711 712 710 706 700 699 700 704 704 712 719 726 734 744 749 754 762 767 768 775 776 783 787 791 794 794 797 802 804
733 725 718 711 704 702 714 699 698 694 695 702 713 705 709 714 720 721 721 719 716 717 717 714 718 721 730 737 739 747 758 762 765 773 785 788 793 794 798 799 800 802 804 805
734 729 728 717 711 722 696 683 681 686 688 696 703 706 706 718 727 727 728 728 731 732 732 727 729 731 739 745 750 749 760 764 769 779 785 791 797 799 803 805 804 805 807 806
733 730 726 723 725 702 696 695 693 692 698 699 701 709 715 721 725 733 733 730 738 743 744 741 741 743 749 754 758 759 770 773 776 786 794 799 802 800 804 808 807 809 808 807
727 726 726 725 725 710 708 701 694 689 704 694 699 706 711 721 721 736 742 730 743 748 753 753 755 753 756 763 766 770 779 782 786 793 799 803 802 803 807 811 808 808 809 808
722 723 725 723 725 711 708 699 692 701 706 698 695 701 713 717 718 736 735 743 748 756 760 761 760 762 769 773 774 780 785 790 797 801 803 805 807 808 811 807 811 811 810 813
719 722 723 721 721 717 706 697 702 706 694 691 697 706 720 729 731 732 741 744 759 759 764 765 765 771 777 781 780 786 792 798 802 804 804 808 811 812 812 812 816 815 818 817
721 720 716 719 716 710 710 710 701 699 696 694 701 713 716 727 733 737 750 759 764 766 767 774 773 777 783 785 784 788 796 799 800 804 807 810 813 818 819 820 819 821 823 821
726 721 720 718 711 712 710 707 699 694 691 694 704 714 719 731 739 747 757 761 765 773 778 779 780 784 788 791 792 795 800 803 805 809 813 818 820 824 824 823 824 825 824 821
740 735 726 717 714 710 708 711 706 704 700 702 710 718 725 730 741 747 758 767 775 781 782 784 786 789 793 797 801 804 806 810 812 814 818 821 822 827 828 828 828 828 827 826
734 735 734 729 724 725 716 711 711 709 709 708 711 723 732 737 744 754 764 773 780 782 786 788 792 794 799 803 806 809 812 814 815 818 822 826 830 831 831 831 831 832 831 829